Harvey, ND

10:26 PM CST on February 19, 2018 (GMT -0600)
Harvey

Weather History for K5H4 - November, 2013

Change the Weather History Date:

Saturday, November 23, 2013

  Actual Average (KRUG) Record (KRUG)
Temperature  
Mean Temperature -3 °F -  
Max Temperature 14 °F 26 °F 53 °F (2017)
Min Temperature -20 °F 13 °F -18 °F (2013)
Degree Days  
Heating Degree Days 68    
Moisture  
Dew Point -8 °F    
Average Humidity 76    
Maximum Humidity 85    
Minimum Humidity 57    
Precipitation  
Precipitation 0.00 in - - ()
Sea Level Pressure  
Sea Level Pressure 30.67 in    
Wind  
Wind Speed 7 mph (SSW)    
Max Wind Speed 15 mph    
Max Gust Speed 18 mph    
Visibility 10 miles    
Events      
Averages and records for this station are not official NWS values.
T = Trace of Precipitation, MM = Missing Value Source: NWS Daily Summary

Daily Weather History Graph

Daily Weather History Graph

Search for Another Location

Airport or City:

Trip Planner

Search our weather history database for the weather conditions in past years. The results will help you decide how hot, cold, wet, or windy it might be!

Date:

Astronomy

Nov. 23, 2013 Rise Set
Actual Time 7:57 AM CST 4:54 PM CST
Civil Twilight 7:22 AM CST 5:29 PM CST
Nautical Twilight 6:44 AM CST 6:07 PM CST
Astronomical Twilight 6:07 AM CST 6:44 PM CST
Moon 10:34 PM CST (11/23) 12:06 PM CST (11/23)
Length of Visible Light 10h 06m
Length of Day
8h 57m
Waning Gibbous, 69% of the Moon is Illuminated
Nov 23
Waning Gibbous
Nov 25
Last Quarter
Dec 2
New
Dec 9
First Quarter
Dec 17
Full

Hourly Weather History & Observations

Time (CST) Temp. Windchill Dew Point Humidity Pressure Visibility Wind Dir Wind Speed Gust Speed Precip Events Conditions
12:15 AM -13.0 °F -27.0 °F -18.4 °F 77% 30.82 in 10.0 mi West 5.8 mph - N/A   Clear
12:35 AM -11.2 °F -26.4 °F -14.8 °F 84% 30.82 in 10.0 mi WNW 6.9 mph - N/A   Clear
12:55 AM -11.2 °F -26.4 °F -16.6 °F 77% 30.82 in 10.0 mi WNW 6.9 mph - N/A   Clear
1:15 AM -13.0 °F -30.0 °F -18.4 °F 77% 30.81 in 10.0 mi NW 8.1 mph - N/A   Clear
1:35 AM -14.8 °F -29.1 °F -18.4 °F 84% 30.81 in 10.0 mi NW 5.8 mph - N/A   Clear
1:55 AM -13.0 °F -27.0 °F -16.6 °F 84% 30.82 in 10.0 mi NW 5.8 mph - N/A   Clear
2:15 AM -14.8 °F -30.8 °F -20.2 °F 77% 30.83 in 10.0 mi WSW 6.9 mph - N/A   Clear
2:35 AM -14.8 °F -30.8 °F -18.4 °F 84% 30.82 in 10.0 mi West 6.9 mph - N/A   Clear
2:55 AM -16.6 °F -34.4 °F -20.2 °F 84% 30.82 in 10.0 mi WNW 8.1 mph - N/A   Clear
3:15 AM -14.8 °F -33.5 °F -18.4 °F 84% 30.82 in 10.0 mi NW 9.2 mph - N/A   Clear
3:35 AM -13.0 °F -28.6 °F -18.4 °F 77% 30.82 in 10.0 mi WNW 6.9 mph - N/A   Clear
3:55 AM -16.6 °F -29.3 °F -20.2 °F 84% 30.81 in 10.0 mi West 4.6 mph - N/A   Clear
4:15 AM -16.6 °F -29.3 °F -20.2 °F 84% 30.81 in 10.0 mi WSW 4.6 mph - N/A   Clear
4:35 AM -18.4 °F -28.9 °F -22.0 °F 84% 30.81 in 10.0 mi WSW 3.5 mph - N/A   Clear
4:55 AM -16.6 °F -31.3 °F -22.0 °F 76% 30.81 in 10.0 mi SW 5.8 mph - N/A   Clear
5:15 AM -18.4 °F -31.4 °F -22.0 °F 84% 30.81 in 10.0 mi WSW 4.6 mph - N/A   Clear
5:35 AM -18.4 °F -33.4 °F -22.0 °F 84% 30.81 in 10.0 mi WSW 5.8 mph - N/A   Clear
5:55 AM -20.2 °F -38.8 °F -25.6 °F 76% 30.82 in 10.0 mi WSW 8.1 mph - N/A   Clear
6:15 AM -18.4 °F -36.6 °F -23.8 °F 76% 30.81 in 10.0 mi WSW 8.1 mph - N/A   Clear
6:35 AM -16.6 °F -34.4 °F -20.2 °F 84% 30.82 in 10.0 mi West 8.1 mph - N/A   Clear
6:55 AM -16.6 °F -26.8 °F -22.0 °F 76% 30.81 in 10.0 mi WSW 3.5 mph - N/A   Clear
7:15 AM -18.4 °F -31.4 °F -22.0 °F 84% 30.82 in 10.0 mi SW 4.6 mph - N/A   Clear
7:35 AM -16.6 °F -26.8 °F -22.0 °F 76% 30.81 in 10.0 mi SW 3.5 mph - N/A   Clear
7:55 AM -16.6 °F -32.9 °F -20.2 °F 84% 30.82 in 10.0 mi SW 6.9 mph - N/A   Clear
8:15 AM -18.4 °F -33.4 °F -22.0 °F 84% 30.82 in 10.0 mi SW 5.8 mph - N/A   Clear
8:35 AM -14.8 °F -27.2 °F -18.4 °F 84% 30.82 in 10.0 mi SW 4.6 mph - N/A   Clear
8:55 AM -13.0 °F -27.0 °F -18.4 °F 77% 30.82 in 10.0 mi WSW 5.8 mph - N/A   Clear
9:15 AM -13.0 °F -25.1 °F -16.6 °F 84% 30.81 in 10.0 mi SW 4.6 mph - N/A   Clear
9:35 AM - - - N/A% 30.80 in 10.0 mi SW 5.8 mph - N/A   Clear
9:55 AM -9.4 °F -20.9 °F -13.0 °F 84% 30.80 in 10.0 mi SSW 4.6 mph - N/A   Clear
10:15 AM -7.6 °F -22.1 °F -11.2 °F 84% 30.80 in 10.0 mi SSW 6.9 mph - N/A   Clear
10:35 AM -4.0 °F -14.6 °F -9.4 °F 78% 30.79 in 10.0 mi SSW 4.6 mph - N/A   Clear
10:55 AM -4.0 °F -14.6 °F -7.6 °F 85% 30.79 in 10.0 mi South 4.6 mph - N/A   Clear
11:15 AM -2.2 °F -10.4 °F -5.8 °F 85% 30.78 in 10.0 mi SSE 3.5 mph - N/A   Clear
11:35 AM -2.2 °F -10.4 °F -5.8 °F 85% 30.78 in 10.0 mi SE 3.5 mph - N/A   Clear
11:55 AM -0.4 °F -8.3 °F -4.0 °F 85% 30.76 in 10.0 mi SSE 3.5 mph - N/A   Clear
12:15 PM 1.4 °F -8.3 °F -2.2 °F 85% 30.75 in 10.0 mi SSE 4.6 mph - N/A   Clear
12:35 PM 1.4 °F -6.2 °F -2.2 °F 85% 30.73 in 10.0 mi South 3.5 mph - N/A   Clear
12:55 PM 5.0 °F -2.1 °F -2.2 °F 72% 30.72 in 10.0 mi SE 3.5 mph - N/A   Clear
1:15 PM 6.8 °F -4.8 °F -2.2 °F 67% 30.71 in 10.0 mi South 6.9 mph - N/A   Clear
1:35 PM 8.6 °F -1.3 °F -0.4 °F 67% 30.69 in 10.0 mi South 5.8 mph - N/A   Clear
1:55 PM 8.6 °F -3.7 °F -2.2 °F 62% 30.68 in 10.0 mi South 8.1 mph - N/A   Clear
2:15 PM 10.4 °F -2.4 °F -2.2 °F 57% 30.66 in 10.0 mi South 9.2 mph - N/A   Clear
2:35 PM 10.4 °F -3.3 °F -0.4 °F 62% 30.65 in 10.0 mi South 10.4 mph - N/A   Clear
2:55 PM 10.4 °F -4.1 °F -0.4 °F 62% 30.63 in 10.0 mi South 11.5 mph - N/A   Clear
3:15 PM 10.4 °F -2.4 °F -0.4 °F 62% 30.62 in 10.0 mi South 9.2 mph - N/A   Clear
3:35 PM 10.4 °F -3.3 °F -0.4 °F 62% 30.61 in 10.0 mi South 10.4 mph - N/A   Clear
3:55 PM 10.4 °F -0.4 °F 1.4 °F 67% 30.61 in 10.0 mi South 6.9 mph - N/A   Clear
4:15 PM 10.4 °F -2.4 °F -0.4 °F 62% 30.60 in 10.0 mi South 9.2 mph - N/A   Clear
4:35 PM 10.4 °F 0.8 °F -0.4 °F 62% 30.59 in 10.0 mi SSE 5.8 mph - N/A   Clear
4:55 PM 8.6 °F -1.3 °F -0.4 °F 67% 30.58 in 10.0 mi SSE 5.8 mph - N/A   Clear
5:15 PM 8.6 °F -2.6 °F -0.4 °F 67% 30.58 in 10.0 mi SSE 6.9 mph - N/A   Clear
5:35 PM 8.6 °F -3.7 °F -0.4 °F 67% 30.55 in 10.0 mi SSE 8.1 mph - N/A   Clear
5:55 PM 6.8 °F -5.9 °F -0.4 °F 72% 30.54 in 10.0 mi SSE 8.1 mph - N/A   Clear
6:15 PM 6.8 °F -3.5 °F -0.4 °F 72% 30.54 in 10.0 mi SSE 5.8 mph - N/A   Clear
6:35 PM 6.8 °F -3.5 °F -0.4 °F 72% 30.52 in 10.0 mi SSE 5.8 mph - N/A   Clear
6:55 PM 6.8 °F -4.8 °F -0.4 °F 72% 30.52 in 10.0 mi SE 6.9 mph - N/A   Clear
7:15 PM 6.8 °F -4.8 °F -0.4 °F 72% 30.51 in 10.0 mi SE 6.9 mph - N/A   Clear
7:35 PM 6.8 °F -2.0 °F -0.4 °F 72% 30.51 in 10.0 mi SE 4.6 mph - N/A   Clear
7:55 PM 5.0 °F -6.9 °F -0.4 °F 78% 30.48 in 10.0 mi SSE 6.9 mph - N/A   Clear
8:15 PM 5.0 °F -6.9 °F -0.4 °F 78% 30.47 in 10.0 mi SSE 6.9 mph - N/A   Clear
8:35 PM 6.8 °F -5.9 °F 1.4 °F 79% 30.45 in 10.0 mi SSE 8.1 mph - N/A   Clear
8:55 PM 8.6 °F -5.5 °F 5.0 °F 85% 30.42 in 10.0 mi South 10.4 mph - N/A   Clear
9:15 PM 10.4 °F -4.1 °F 6.8 °F 85% 30.42 in 10.0 mi South 11.5 mph - N/A   Clear
9:35 PM 14.0 °F 0.5 °F 6.8 °F 73% 30.42 in 10.0 mi South 11.5 mph - N/A   Clear
9:55 PM 14.0 °F 1.2 °F 6.8 °F 73% 30.41 in 10.0 mi South 10.4 mph - N/A   Clear
10:15 PM 12.2 °F -0.2 °F 6.8 °F 79% 30.41 in 10.0 mi South 9.2 mph - N/A   Clear
10:35 PM 12.2 °F -1.8 °F 6.8 °F 79% 30.38 in 10.0 mi South 11.5 mph - N/A   Clear
10:55 PM 14.0 °F 2.0 °F 6.8 °F 73% 30.37 in 10.0 mi South 9.2 mph - N/A   Clear
11:15 PM 14.0 °F -0.2 °F 6.8 °F 73% 30.35 in 10.0 mi South 12.7 mph - N/A   Clear
11:35 PM 14.0 °F -1.4 °F 6.8 °F 73% 30.33 in 10.0 mi South 15.0 mph - N/A   Clear
11:55 PM 14.0 °F -0.8 °F 8.6 °F 79% 30.31 in 10.0 mi SSW 13.8 mph 18.4 mph N/A   Clear